Content
SEND FEEDBACK

Daily
Averages
Monthly
Summary
United States of America

ACHANG BAY, GUAM


Home > North America > United States > Guam
Elevation: 30 feet     Latitude: 13 16N     Longitude: 144 45E

WEATHER
 
SELECT A DAY
Number of Records: 341,631;   Date Range: 1/1/95 - 7/20/14
 
SHARE

PRINT THIS DATA

[ ← Previous Day ]
WEATHER ALMANAC - JANUARY 14, 2013
[ Next Day → ]
[ °C ]   °F
Weather ElementAverageHighLow
Temperature79.7 °F84.4 °F (2:55 pm)72.7 °F (5:55 pm)
Dewpoint71.1 °F73.4 °F (11:02 am)63.7 °F (5:55 pm)
Humidity74.9 %83 % (5:22 am)66 % (11:37 am)
Barometer29.83 in29.86 in (8:55 am)29.78 in (1:55 pm)
Wind Speed13.9 mph18.4 mph (7:55 am)
Wind Gust24.2 mph (11:03 am)
Weather ElementAverage
Visibility10 mi
Wind DirectionENE (82.5 °)

Weather ElementTotal
Precipitation---
Cooling Degree Days13.6 (Base 65)
Growing Degree Days28.6 (Base 50)
Averaged from 51 records on January 14, 2013
WEATHER CONDITIONS BREAKOUT
WIND DIRECTION BREAKOUT
WEATHER BY HOUR - JANUARY 14, 2013
[ °C ]   °F
Local TimeTemperatureDewpointHumidityBarometerVisibilityWind DirectionWind SpeedGust SpeedPrecipitationEventsConditions
12:44 AM78.8 °F71.6 °F78 %29.84 in10.0 miEast (80°)15.0 mphMostly Cloudy
12:53 AM78.8 °F69.8 °F74 %29.84 in10.0 miEast (80°)11.5 mphMostly Cloudy
12:55 AM78.3 °F70.5 °F77 %29.84 in10.0 miEast (90°)10.4 mphMostly Cloudy
12:56 AM78.8 °F69.8 °F74 %29.84 in10.0 miEast (90°)10.4 mphMostly Cloudy
1:55 AM78.3 °F71.4 °F79 %29.83 in10.0 miENE (70°)12.7 mphMostly Cloudy
2:55 AM78.1 °F72.0 °F81 %29.82 in10.0 miENE (70°)13.8 mphMostly Cloudy
3:30 AM78.8 °F71.6 °F78 %29.82 in10.0 miENE (70°)16.1 mphOvercast
3:48 AM78.8 °F71.6 °F78 %29.82 in10.0 miENE (70°)12.7 mphOvercast
3:55 AM78.3 °F71.1 °F78 %29.82 in10.0 miENE (70°)12.7 mphOvercast
4:55 AM78.1 °F71.1 °F79 %29.83 in10.0 miENE (70°)15.0 mphMostly Cloudy
5:22 AM77.0 °F71.6 °F83 %29.83 in10.0 miENE (70°)15.0 mphMostly Cloudy
5:24 AM77.0 °F71.6 °F83 %29.83 in10.0 miENE (70°)15.0 mphMostly Cloudy
5:41 AM77.0 °F69.8 °F78 %29.83 in10.0 miENE (70°)15.0 mphMostly Cloudy
5:44 AM77.0 °F69.8 °F78 %29.83 in10.0 miENE (70°)13.8 mphMostly Cloudy
5:45 AM77.0 °F69.8 °F78 %29.83 in10.0 miEast (80°)16.1 mphMostly Cloudy
5:51 AM77.0 °F69.8 °F78 %29.83 in10.0 miENE (70°)15.0 mphMostly Cloudy
5:55 AM77.0 °F65.3 °F67 %29.83 in10.0 miENE (70°)12.7 mphMostly Cloudy
6:55 AM77.0 °F69.8 °F78 %29.84 in10.0 miENE (70°)13.8 mphOvercast
7:04 AM77.0 °F69.8 °F78 %29.84 in10.0 miENE (70°)13.8 mphOvercast
7:05 AM78.8 °F69.8 °F74 %29.84 in10.0 miENE (70°)15.0 mphOvercast
7:06 AM78.8 °F69.8 °F74 %29.84 in10.0 miENE (70°)13.8 mphOvercast
7:10 AM77.0 °F68.0 °F74 %29.84 in10.0 miENE (70°)16.1 mphOvercast
7:55 AM79.5 °F70.3 °F73 %29.85 in10.0 miENE (70°)18.4 mphMostly Cloudy
8:55 AM80.6 °F70.9 °F72 %29.86 in10.0 miEast (90°)12.7 mphPartly Cloudy
9:55 AM79.0 °F68.9 °F71 %29.85 in10.0 miEast (80°)15.0 mphClear
10:55 AM82.2 °F72.3 °F72 %29.83 in10.0 miENE (70°)18.4 mph23.0 mphScattered Clouds
11:02 AM84.2 °F73.4 °F70 %29.83 in10.0 miENE (70°)15.0 mphMostly Cloudy
11:03 AM84.2 °F73.4 °F70 %29.83 in10.0 miEast (80°)17.3 mph24.2 mphScattered Clouds
11:07 AM84.2 °F73.4 °F70 %29.83 in10.0 miENE (70°)17.3 mph24.2 mphMostly Cloudy
11:32 AM82.4 °F73.4 °F74 %29.83 in10.0 miENE (70°)17.3 mph23.0 mphScattered Clouds
11:37 AM84.2 °F71.6 °F66 %29.83 in10.0 miENE (70°)18.4 mph23.0 mphMostly Cloudy
11:39 AM84.2 °F71.6 °F66 %29.83 in10.0 miENE (70°)18.4 mphScattered Clouds
11:55 AM83.5 °F71.2 °F66 %29.82 in10.0 miENE (70°)18.4 mphPartly Cloudy
12:48 PM84.2 °F73.4 °F70 %29.80 in10.0 miEast (80°)15.0 mphMostly Cloudy
12:55 PM83.3 °F72.9 °F71 %29.80 in10.0 miEast (80°)15.0 mphMostly Cloudy
12:59 PM82.4 °F73.4 °F74 %29.80 in10.0 miEast (90°)15.0 mphMostly Cloudy
1:01 PM82.4 °F73.4 °F74 %29.80 in10.0 miEast (80°)15.0 mphMostly Cloudy
1:03 PM82.4 °F73.4 °F74 %29.80 in10.0 miEast (90°)16.1 mphMostly Cloudy
1:55 PM83.3 °F73.4 °F72 %29.78 in10.0 miEast (90°)13.8 mphScattered Clouds
2:55 PM84.4 °F71.8 °F66 %29.79 in10.0 miEast (90°)16.1 mphPartly Cloudy
3:55 PM83.8 °F71.6 °F66 %29.80 in10.0 miEast (80°)13.8 mphClear
4:55 PM78.3 °F68.5 °F72 %29.81 in10.0 miEast (90°)11.5 mphClear
5:55 PM72.7 °F63.7 °F73 %29.83 in10.0 miEast (100°)11.5 mphClear
6:55 PM78.4 °F71.2 °F78 %29.83 in10.0 miEast (100°)8.1 mphClear
7:55 PM78.3 °F71.6 °F80 %29.83 in10.0 miEast (100°)8.1 mphPartly Cloudy
8:55 PM78.3 °F72.0 °F81 %29.84 in10.0 miESE (110°)10.4 mphScattered Clouds
9:16 PM78.8 °F71.6 °F78 %29.84 in10.0 miESE (110°)11.5 mphMostly Cloudy
9:55 PM78.4 °F71.6 °F79 %29.84 in10.0 miESE (110°)11.5 mphOvercast
10:17 PM78.8 °F71.6 °F78 %29.84 in10.0 miESE (120°)9.2 mphScattered Clouds
10:55 PM77.7 °F71.1 °F80 %29.84 in10.0 miSE (130°)8.1 mphClear
11:55 PM77.0 °F71.6 °F83 %29.84 in10.0 miSE (140°)8.1 mphClear
Hourly data recorded from PGUA, located miles away from Achang Bay, Guam







STORIES FROM OUR PARTNERS